(210112) = 2001 NJ15 = 2006 QB168

Discovered at Anderson Mesa on 2006-08-30 by LONEOS.

Orbit

Orbit type: Main Belt

Note: WebGL enabled browser required.

epoch2023-02-25.0
epoch JD2460000.5
perihelion date2020-10-02.64906
perihelion JD2459125.14906
argument of perihelion (°)318.28708
ascending node (°)40.06498
inclination (°)4.86151
eccentricity0.0825616
perihelion distance (AU)2.5537255
Tisserand w.r.t. Jupiter3.3
ΔV w.r.t. Earth (km/sec)10.1
semimajor axis (AU)2.7835389
mean anomaly (°)185.77621
mean daily motion (°/day)0.21223060
aphelion distance (AU)3.013
period (years)4.64
P-vector [x]0.99804562
P-vector [y]-0.00227309
P-vector [z]-0.06244819
Q-vector [x]0.03048655
Q-vector [y]0.89005233
Q-vector [z]0.45483779
absolute magnitude16.06
phase slope0.15
uncertainty0
referenceMPO 745323
observations used500
oppositions17
arc length (days)8385
first opposition used2000
last opposition used2023
residual rms (arc-secs)0.74
perturbers coarse indicatorM-v
perturbers precise indicator003Ek
first observation date used2000-05-07.0
last observation date used2023-04-22.0
computer nameMPCLINUX
JD of orbit computation2456847.667961
perihelion JD uncertainty (days)1.2581E-04
argument of perihelion uncertainty (°)5.9307E-05
ascending node uncertainty (°)5.3685E-05
inclination uncertainty (°)6.2402E-06
eccentricity uncertainty 6.2424E-08
perihelion distance uncertainty (AU)1.7290E-07
Minimum Orbit Intersection Distances (in AU)
for orbit epoch: 2460000.5, reference: E2023-HE9
Mercury2.17504
Venus1.82705
Earth1.55104
Mars1.14985
Jupiter2.36405
Saturn6.24643
Uranus15.4374
Neptune27.2594

Observations

511 total observations over interval: 2000 05 07.21843 – 2023 04 22.338405
These data are available for download (format description).

Date (UT) J2000 RA J2000 Dec Magn Location Ref
2000 05 07.21843 13 25 06.21 -07 37 56.5 21.5 V 691 – Steward Observatory, Kitt Peak-Spacewatch MPS 229839
2000 05 07.23987 13 25 05.24 -07 37 53.0 21.1 V 691 – Steward Observatory, Kitt Peak-Spacewatch MPS 229839
2000 05 07.26128 13 25 04.33 -07 37 50.1 21.3 V 691 – Steward Observatory, Kitt Peak-Spacewatch MPS 229839
2001 07 13.30322 20 39 09.76 -26 21 15.8 20.1   644 – Palomar Mountain/NEAT MPS 32429
2001 07 13.31392 20 39 09.21 -26 21 18.8 19.7   644 – Palomar Mountain/NEAT MPS 32429
2001 07 13.32463 20 39 08.68 -26 21 21.4 19.6   644 – Palomar Mountain/NEAT MPS 32429
2001 07 20.28319 20 33 10.95 -26 49 38.0 19.2   644 – Palomar Mountain/NEAT MPS 32429
2001 07 20.29379 20 33 10.36 -26 49 40.8 19.5   644 – Palomar Mountain/NEAT MPS 32429
2001 07 20.30413 20 33 09.82 -26 49 42.7 19.6   644 – Palomar Mountain/NEAT MPS 32429
2004 02 17.43697 10 41 59.08 +15 25 14.3 20.5 V 691 – Steward Observatory, Kitt Peak-Spacewatch MPS 182511
2004 02 17.43976 10 41 58.95 +15 25 15.3 20.7 V 691 – Steward Observatory, Kitt Peak-Spacewatch MPS 182511
2004 02 17.46393 10 41 57.67 +15 25 22.4 20.7 V 691 – Steward Observatory, Kitt Peak-Spacewatch MPS 182511
2004 02 17.46653 10 41 57.56 +15 25 22.7 20.8 V 691 – Steward Observatory, Kitt Peak-Spacewatch MPS 182511
2004 02 17.50666 10 41 55.49 +15 25 34.1 21.4 V 691 – Steward Observatory, Kitt Peak-Spacewatch MPS 182511
2004 02 17.51525 10 41 55.02 +15 25 36.9 21.1 V 691 – Steward Observatory, Kitt Peak-Spacewatch MPS 182511
2004 03 19.21786 10 16 40.89 +17 15 09.8 20.0   644 – Palomar Mountain/NEAT MPS 182511
2004 03 19.23906 10 16 39.98 +17 15 12.2 20.3   644 – Palomar Mountain/NEAT MPS 182511
2004 03 19.26076 10 16 39.10 +17 15 14.5 20.2   644 – Palomar Mountain/NEAT MPS 182511
2005 05 16.37527 15 40 02.94 -21 46 52.8 20.0   644 – Palomar Mountain/NEAT MPS 229839
2005 05 16.39681 15 40 01.68 -21 46 50.8 19.9   644 – Palomar Mountain/NEAT MPS 229839
2005 05 16.41851 15 40 00.46 -21 46 48.9 19.6   644 – Palomar Mountain/NEAT MPS 229839
2006 08 30.30718 23 21 42.11 -11 27 21.1 18.9 R 699 – Lowell Observatory-LONEOS MPS 179467
2006 08 30.33124 23 21 40.95 -11 27 27.0   699 – Lowell Observatory-LONEOS MPS 179467
2006 08 30.35431 23 21 39.82 -11 27 34.4   699 – Lowell Observatory-LONEOS MPS 179467
2006 08 30.38192 23 21 38.46 -11 27 40.5   699 – Lowell Observatory-LONEOS MPS 179467
2006 09 14.28166 23 09 08.88 -12 27 09.5 19.0 R 644 – Palomar Mountain/NEAT MPS 179467
2006 09 14.30238 23 09 07.80 -12 27 13.5 19.4 R 644 – Palomar Mountain/NEAT MPS 179467
2006 09 14.31699 23 09 07.02 -12 27 17.3 19.5 V 703 – Catalina Sky Survey MPS 179467
2006 09 14.32412 23 09 06.66 -12 27 18.2 19.3 V 703 – Catalina Sky Survey MPS 179467
2006 09 14.32804 23 09 06.45 -12 27 18.6 19.1 R 644 – Palomar Mountain/NEAT MPS 179467
2006 09 14.33125 23 09 06.22 -12 27 19.2 19.0 V 703 – Catalina Sky Survey MPS 179467
2006 09 14.33841 23 09 05.83 -12 27 21.2 19.2 V 703 – Catalina Sky Survey MPS 179467
2006 09 21.18092 23 03 30.15 -12 47 34.1 19.3 R 699 – Lowell Observatory-LONEOS MPS 179467
2006 09 21.20194 23 03 29.05 -12 47 40.9   699 – Lowell Observatory-LONEOS MPS 179467
2006 09 21.22298 23 03 28.14 -12 47 43.5   699 – Lowell Observatory-LONEOS MPS 179467
2006 09 21.24400 23 03 27.00 -12 47 45.0   699 – Lowell Observatory-LONEOS MPS 179467
2006 09 30.19120 22 57 01.47 -13 04 03.4 19.9 V 703 – Catalina Sky Survey MPS 182819
2006 09 30.20094 22 57 01.04 -13 04 03.7 19.8 V 703 – Catalina Sky Survey MPS 182819
2006 09 30.21064 22 57 00.64 -13 04 03.2 18.8 V 703 – Catalina Sky Survey MPS 182819
2006 09 30.22031 22 57 00.28 -13 04 05.8 19.3 V 703 – Catalina Sky Survey MPS 182819
2006 11 27.07831 23 00 33.40 -09 50 38.4 21.8 V G96 – Mt. Lemmon Survey MPS 190530
2006 11 27.08496 23 00 33.73 -09 50 35.4 21.2 V G96 – Mt. Lemmon Survey MPS 190530
2006 11 27.09156 23 00 34.02 -09 50 32.6 21.3 V G96 – Mt. Lemmon Survey MPS 190530
2006 11 27.09811 23 00 34.30 -09 50 29.5 22.0 V G96 – Mt. Lemmon Survey MPS 190530
2007 12 05.33226 07 00 31.76 +28 27 20.6 20.3 V 691 – Steward Observatory, Kitt Peak-Spacewatch MPS 229839
2007 12 05.34991 07 00 31.00 +28 27 23.5 20.1 V 691 – Steward Observatory, Kitt Peak-Spacewatch MPS 229839
2007 12 05.36520 07 00 30.33 +28 27 26.9 20.0 V 691 – Steward Observatory, Kitt Peak-Spacewatch MPS 229839
2007 12 15.33497 06 52 28.41 +28 57 32.5 20.5   704 – Lincoln Laboratory ETS, New Mexico MPS 231353
2007 12 15.34790 06 52 27.70 +28 57 36.1 20.0   704 – Lincoln Laboratory ETS, New Mexico MPS 231353
2007 12 15.36072 06 52 26.95 +28 57 38.5 20.0   704 – Lincoln Laboratory ETS, New Mexico MPS 231353
2007 12 15.37356 06 52 26.27 +28 57 41.0 20.3   704 – Lincoln Laboratory ETS, New Mexico MPS 231353
2009 02 20.40077 12 42 16.04 +00 24 06.7 20.6 V 691 – Steward Observatory, Kitt Peak-Spacewatch MPS 277606
2009 02 20.41915 12 42 15.56 +00 24 09.8 20.6 V 691 – Steward Observatory, Kitt Peak-Spacewatch MPS 277606
2009 02 20.43725 12 42 15.07 +00 24 13.0 20.7 V 691 – Steward Observatory, Kitt Peak-Spacewatch MPS 277606
2009 02 24.35977 12 40 26.88 +00 36 17.0   691 – Steward Observatory, Kitt Peak-Spacewatch MPS 277606
2009 02 24.37810 12 40 26.31 +00 36 20.5   691 – Steward Observatory, Kitt Peak-Spacewatch MPS 277606
2009 02 24.39618 12 40 25.72 +00 36 24.0   691 – Steward Observatory, Kitt Peak-Spacewatch MPS 277606
2009 03 08.28537 12 33 09.14 +01 21 08.8 20.4 V G96 – Mt. Lemmon Survey MPS 279993
2009 03 08.29089 12 33 08.85 +01 21 10.2 20.4 V G96 – Mt. Lemmon Survey MPS 279993
2009 03 08.29647 12 33 08.64 +01 21 11.3 20.5 V G96 – Mt. Lemmon Survey MPS 279993
2009 03 08.30191 12 33 08.35 +01 21 13.2 20.7 V G96 – Mt. Lemmon Survey MPS 279993
2009 03 16.22334 12 27 07.86 +01 55 16.4 20.2 V 691 – Steward Observatory, Kitt Peak-Spacewatch MPS 281180
2009 03 16.24145 12 27 06.97 +01 55 21.3 20.4 V 691 – Steward Observatory, Kitt Peak-Spacewatch MPS 281180
2009 03 16.25981 12 27 06.06 +01 55 26.1 20.1 V 691 – Steward Observatory, Kitt Peak-Spacewatch MPS 281180
2009 03 18.19974 12 25 32.06 +02 03 58.1   691 – Steward Observatory, Kitt Peak-Spacewatch MPS 281180
2009 03 18.21733 12 25 31.20 +02 04 02.6   691 – Steward Observatory, Kitt Peak-Spacewatch MPS 281180
2009 03 18.23493 12 25 30.33 +02 04 07.8   691 – Steward Observatory, Kitt Peak-Spacewatch MPS 281180
2009 03 24.20250 12 20 33.02 +02 30 11.2 19.9 V 691 – Steward Observatory, Kitt Peak-Spacewatch MPS 282446
2009 03 24.22014 12 20 32.13 +02 30 16.3 20.2 V 691 – Steward Observatory, Kitt Peak-Spacewatch MPS 282446
2009 03 24.23780 12 20 31.23 +02 30 21.5 20.0 V 691 – Steward Observatory, Kitt Peak-Spacewatch MPS 282446
2009 03 27.32952 12 17 54.96 +02 43 27.0 20.2 V G96 – Mt. Lemmon Survey MPS 282446
2009 03 27.33832 12 17 54.52 +02 43 29.0 20.1 V G96 – Mt. Lemmon Survey MPS 282446
2009 03 27.34713 12 17 54.06 +02 43 31.2 20.2 V G96 – Mt. Lemmon Survey MPS 282446
2009 03 27.35578 12 17 53.59 +02 43 33.5 20.0 V G96 – Mt. Lemmon Survey MPS 282446
2011 09 21.34261 02 13 08.34 +10 48 34.8 20.0 V 691 – Steward Observatory, Kitt Peak-Spacewatch MPS 392385
2011 09 21.36039 02 13 07.86 +10 48 33.8 20.0 V 691 – Steward Observatory, Kitt Peak-Spacewatch MPS 392385
2011 09 21.37818 02 13 07.34 +10 48 32.9 19.9 V 691 – Steward Observatory, Kitt Peak-Spacewatch MPS 392385
2011 09 25.06705 02 11 20.44 +10 44 07.8 19.2 R 106 – Crni Vrh MPS 394031
2011 09 25.07939 02 11 20.05 +10 44 06.4 18.7 R 106 – Crni Vrh MPS 394031
2011 09 25.09182 02 11 19.65 +10 44 05.9 19.0 R 106 – Crni Vrh MPS 394031
2011 09 25.10421 02 11 19.33 +10 44 05.7 18.5 R 106 – Crni Vrh MPS 394031
2011 09 26.29832 02 10 40.39 +10 42 22.4 18.8   704 – Lincoln Laboratory ETS, New Mexico MPS 394031
2011 09 26.31092 02 10 40.01 +10 42 21.8 19.7   704 – Lincoln Laboratory ETS, New Mexico MPS 394031
2011 09 26.32351 02 10 39.55 +10 42 20.4 20.1   704 – Lincoln Laboratory ETS, New Mexico MPS 394031
2011 09 26.33659 02 10 39.14 +10 42 18.8 19.8   704 – Lincoln Laboratory ETS, New Mexico MPS 394031
2011 09 26.34924 02 10 38.64 +10 42 18.5 19.2   704 – Lincoln Laboratory ETS, New Mexico MPS 394031
2011 09 29.32074 02 08 52.74 +10 37 24.7 20.0 V 691 – Steward Observatory, Kitt Peak-Spacewatch MPS 394031
